When you browse on this site, cookies collect data to enhance your experience and personalize the content and advertising you see.
Visit our Privacy Policy to learn more. By continuing to use the site, you agree to this use of cookies and data.
  • En España
  • Lista de países
  • Para 7 días
  • Temperatura del agua
  • El tiempo en el mapa
  • Informadores
  • user-avatar
    Iniciar sesión

    Tiempo cada hora Chervonyi Kyiv

    Hoy, 14 Octubre, Lunes

    Tiempo Temperatura Precipitaciones Viento Presión Humedad
    00:00 +14°C° 0 mm 2 mps 757 mmHg 85%
    01:00 +14°C° 0 mm 2 mps 757 mmHg 86%
    02:00 +13°C° 0 mm 2 mps 757 mmHg 88%
    03:00 +13°C° 0 mm 2 mps 757 mmHg 88%
    04:00 +13°C° 0 mm 2 mps 757 mmHg 88%
    05:00 +12°C° 0 mm 2 mps 756 mmHg 88%
    06:00 +13°C° 0 mm 2 mps 757 mmHg 84%
    07:00 +14°C° 0 mm 2 mps 757 mmHg 80%
    08:00 +15°C° 0 mm 2 mps 757 mmHg 76%
    09:00 +17°C° 0 mm 3 mps 757 mmHg 66%
    10:00 +20°C° 0 mm 3 mps 757 mmHg 56%
    11:00 +22°C° 0 mm 4 mps 757 mmHg 47%
    12:00 +23°C° 0 mm 4 mps 757 mmHg 43%
    13:00 +25°C° 0 mm 4 mps 757 mmHg 39%
    14:00 +26°C° 0 mm 4 mps 756 mmHg 36%
    15:00 +24°C° 0 mm 3 mps 756 mmHg 40%
    16:00 +22°C° 0 mm 3 mps 756 mmHg 45%
    17:00 +20°C° 0 mm 3 mps 755 mmHg 49%
    18:00 +19°C° 0 mm 3 mps 755 mmHg 58%
    19:00 +17°C° 0 mm 3 mps 755 mmHg 67%
    20:00 +14°C° 0 mm 3 mps 756 mmHg 75%
    21:00 +14°C° 0 mm 3 mps 756 mmHg 79%
    22:00 +13°C° 0 mm 3 mps 755 mmHg 83%
    23:00 +14°C° 0 mm 2 mps 755 mmHg 87%

    Mañana, 15 Octubre, Martes

    Tiempo Temperatura Precipitaciones Viento Presión Humedad
    00:00 +14°C° 0 mm 2 mps 755 mmHg 88%
    01:00 +13°C° 0 mm 2 mps 755 mmHg 89%
    02:00 +13°C° 0 mm 2 mps 755 mmHg 90%
    03:00 +13°C° 0 mm 2 mps 755 mmHg 90%
    04:00 +13°C° 0 mm 1 mps 755 mmHg 90%
    05:00 +12°C° 0 mm 1 mps 755 mmHg 91%
    06:00 +13°C° 0 mm 1 mps 755 mmHg 86%
    07:00 +14°C° 0 mm 1 mps 755 mmHg 82%
    08:00 +15°C° 0 mm 1 mps 756 mmHg 78%
    09:00 +17°C° 0 mm 2 mps 756 mmHg 67%
    10:00 +19°C° 0 mm 2 mps 756 mmHg 57%
    11:00 +21°C° 0 mm 2 mps 756 mmHg 46%
    12:00 +23°C° 0 mm 2 mps 755 mmHg 40%
    13:00 +24°C° 0 mm 2 mps 755 mmHg 35%
    14:00 +25°C° 0 mm 2 mps 755 mmHg 29%
    15:00 +24°C° 0 mm 2 mps 755 mmHg 31%
    16:00 +21°C° 0 mm 2 mps 754 mmHg 34%
    17:00 +20°C° 0 mm 2 mps 754 mmHg 36%
    18:00 +19°C° 0 mm 2 mps 754 mmHg 39%
    19:00 +17°C° 0 mm 2 mps 754 mmHg 43%
    20:00 +16°C° 0 mm 2 mps 755 mmHg 46%
    21:00 +16°C° 0 mm 2 mps 755 mmHg 48%
    22:00 +15°C° 0 mm 1 mps 755 mmHg 51%
    23:00 +15°C° 0 mm 1 mps 755 mmHg 53%

    Pasado mañana, 16 Octubre, Miércoles

    Tiempo Temperatura Precipitaciones Viento Presión Humedad
    00:00 +14°C° 0 mm 1 mps 755 mmHg 54%
    01:00 +14°C° 0 mm 1 mps 755 mmHg 55%
    02:00 +13°C° 0 mm 1 mps 755 mmHg 56%
    03:00 +13°C° 0 mm 2 mps 755 mmHg 58%
    04:00 +13°C° 0 mm 2 mps 755 mmHg 59%
    05:00 +12°C° 0 mm 2 mps 755 mmHg 60%
    06:00 +13°C° 0 mm 2 mps 755 mmHg 58%
    07:00 +14°C° 0 mm 2 mps 755 mmHg 55%
    08:00 +15°C° 0 mm 2 mps 755 mmHg 52%
    09:00 +17°C° 0 mm 3 mps 755 mmHg 45%
    10:00 +20°C° 0 mm 3 mps 755 mmHg 39%
    11:00 +22°C° 0 mm 3 mps 755 mmHg 32%
    12:00 +24°C° 0 mm 3 mps 755 mmHg 29%
    13:00 +25°C° 0 mm 3 mps 755 mmHg 26%
    14:00 +25°C° 0 mm 3 mps 754 mmHg 24%
    15:00 +24°C° 0 mm 2 mps 754 mmHg 27%
    16:00 +21°C° 0 mm 2 mps 754 mmHg 29%
    17:00 +20°C° 0 mm 2 mps 754 mmHg 32%
    18:00 +19°C° 0 mm 2 mps 754 mmHg 34%
    19:00 +18°C° 0 mm 2 mps 754 mmHg 36%
    20:00 +17°C° 0 mm 2 mps 754 mmHg 38%
    21:00 +16°C° 0 mm 2 mps 754 mmHg 40%
    22:00 +15°C° 0 mm 2 mps 754 mmHg 42%
    23:00 +14°C° 0 mm 1 mps 754 mmHg 44%

    17 Octubre, Jueves

    Tiempo Temperatura Precipitaciones Viento Presión Humedad
    00:00 +14°C° 0 mm 1 mps 754 mmHg 47%
    01:00 +14°C° 0 mm 1 mps 754 mmHg 49%
    02:00 +13°C° 0 mm 1 mps 755 mmHg 51%
    03:00 +13°C° 0 mm 1 mps 754 mmHg 53%
    04:00 +13°C° 0 mm 1 mps 754 mmHg 54%
    05:00 +12°C° 0 mm 1 mps 754 mmHg 56%
    06:00 +14°C° 0 mm 1 mps 754 mmHg 54%
    07:00 +15°C° 0 mm 1 mps 754 mmHg 52%
    08:00 +16°C° 0 mm 1 mps 754 mmHg 50%
    09:00 +19°C° 0 mm 1 mps 755 mmHg 45%
    10:00 +21°C° 0 mm 1 mps 755 mmHg 40%
    11:00 +23°C° 0 mm 1 mps 755 mmHg 35%
    12:00 +24°C° 0 mm 1 mps 754 mmHg 33%
    13:00 +25°C° 0 mm 1 mps 754 mmHg 30%
    14:00 +25°C° 0 mm 1 mps 754 mmHg 28%
    15:00 +24°C° 0 mm 1 mps 754 mmHg 31%
    16:00 +22°C° 0 mm 1 mps 753 mmHg 34%
    17:00 +19°C° 0 mm 0 mps 753 mmHg 38%
    18:00 +18°C° 0 mm 0 mps 753 mmHg 39%
    19:00 +17°C° 0 mm 0 mps 754 mmHg 41%
    20:00 +16°C° 0 mm 0 mps 754 mmHg 43%
    21:00 +16°C° 0 mm 0 mps 754 mmHg 45%
    22:00 +15°C° 0 mm 0 mps 754 mmHg 46%
    23:00 +15°C° 0 mm 0 mps 754 mmHg 48%

    18 Octubre, Viernes

    Tiempo Temperatura Precipitaciones Viento Presión Humedad
    00:00 +14°C° 0 mm 0 mps 754 mmHg 49%
    01:00 +15°C° 0 mm 1 mps 754 mmHg 50%
    02:00 +14°C° 0 mm 1 mps 754 mmHg 51%
    03:00 +14°C° 0 mm 1 mps 754 mmHg 52%
    04:00 +14°C° 0 mm 1 mps 754 mmHg 53%
    05:00 +14°C° 0 mm 1 mps 754 mmHg 54%
    06:00 +14°C° 0 mm 1 mps 754 mmHg 53%
    07:00 +15°C° 0 mm 1 mps 754 mmHg 51%
    08:00 +16°C° 0 mm 2 mps 755 mmHg 49%
    09:00 +18°C° 0 mm 2 mps 755 mmHg 44%
    10:00 +20°C° 0 mm 2 mps 755 mmHg 39%
    11:00 +23°C° 0 mm 2 mps 755 mmHg 34%
    12:00 +24°C° 0 mm 2 mps 755 mmHg 33%
    13:00 +24°C° 0 mm 2 mps 755 mmHg 31%
    14:00 +25°C° 0 mm 2 mps 755 mmHg 29%
    15:00 +24°C° 0 mm 2 mps 754 mmHg 33%
    16:00 +21°C° 0 mm 2 mps 754 mmHg 37%
    17:00 +20°C° 0 mm 2 mps 754 mmHg 40%
    18:00 +19°C° 0 mm 2 mps 754 mmHg 45%
    19:00 +18°C° 0 mm 2 mps 755 mmHg 49%
    20:00 +17°C° 0 mm 2 mps 755 mmHg 53%
    21:00 +16°C° 0 mm 3 mps 755 mmHg 57%
    22:00 +16°C° 0 mm 3 mps 755 mmHg 61%
    23:00 +14°C° 0 mm 3 mps 755 mmHg 65%

    19 Octubre, Sábado

    Tiempo Temperatura Precipitaciones Viento Presión Humedad
    00:00 +15°C° 0 mm 2 mps 755 mmHg 67%
    01:00 +14°C° 0 mm 2 mps 755 mmHg 70%
    02:00 +14°C° 0 mm 2 mps 755 mmHg 73%
    03:00 +13°C° 0 mm 2 mps 755 mmHg 75%
    04:00 +13°C° 0 mm 2 mps 756 mmHg 77%
    05:00 +13°C° 0 mm 2 mps 756 mmHg 80%
    06:00 +14°C° 0 mm 2 mps 756 mmHg 77%
    07:00 +15°C° 0 mm 2 mps 756 mmHg 74%
    08:00 +15°C° 0 mm 2 mps 756 mmHg 72%
    09:00 +17°C° 0 mm 3 mps 756 mmHg 63%
    10:00 +19°C° 0 mm 3 mps 756 mmHg 55%
    11:00 +21°C° 0 mm 3 mps 756 mmHg 47%
    12:00 +22°C° 0 mm 3 mps 756 mmHg 45%
    13:00 +22°C° 0 mm 3 mps 756 mmHg 42%
    14:00 +24°C° 0 mm 3 mps 756 mmHg 40%
    15:00 +23°C° 0 mm 2 mps 756 mmHg 43%
    16:00 +20°C° 0 mm 2 mps 755 mmHg 47%
    17:00 +19°C° 0 mm 2 mps 755 mmHg 50%
    18:00 +18°C° 0 mm 2 mps 756 mmHg 54%
    19:00 +17°C° 0 mm 3 mps 756 mmHg 57%
    20:00 +16°C° 0 mm 3 mps 756 mmHg 61%
    21:00 +16°C° 0 mm 3 mps 756 mmHg 64%
    22:00 +15°C° 0 mm 2 mps 756 mmHg 67%
    23:00 +15°C° 0 mm 2 mps 756 mmHg 71%
    Mostrar más